Theta_e
309 309 310 308 309 309 307 306 303 299 300 305 305 310 308 307 305 305 305 303 300 300 300 301 303 304 305 306 308 310 312 314 316 317 317 322 322 323
307 306 306 305 306 306 306 305 304 300 297 303 303 305 305 303 303 303 304 301 301 299 298 299 300 302 303 303 305 306 308 310 312 313 315 318 321 321
303 302 302 303 303 303 303 303 301 299 295 298 301 303 302 301 301 302 301 302 303 299 297 296 297 297 298 300 301 302 304 306 307 310 312 315 319 320
301 301 299 299 300 300 302 300 300 300 295 294 297 298 298 299 298 297 298 299 300 297 295 295 294 293 294 295 297 300 300 301 303 304 307 310 316 318
299 298 297 299 299 301 300 299 298 297 297 292 292 296 296 295 293 295 296 297 297 296 294 293 291 292 292 293 295 298 299 299 299 300 302 305 308 311
296 296 296 296 297 298 297 297 295 295 293 292 292 293 291 291 292 291 289 291 291 292 294 292 291 290 290 291 294 298 299 299 298 298 296 297 298 303
294 294 295 291 287 288 293 294 293 292 290 290 291 288 288 287 287 287 286 289 293 291 290 291 291 288 288 289 294 299 298 298 298 297 297 296 296 297
291 292 292 289 289 285 285 285 287 289 289 289 288 286 286 287 287 286 287 286 285 293 288 289 291 287 286 287 290 294 294 294 293 294 294 293 292 292
289 288 288 288 288 288 287 285 285 286 283 287 286 286 285 286 285 285 285 286 286 288 288 287 289 287 286 286 288 289 290 290 289 289 288 288 287 287
290 289 289 289 288 287 288 289 289 289 289 289 288 287 287 286 286 285 285 286 288 290 289 284 287 285 286 286 288 288 287 287 287 287 287 286 286 285
290 291 291 289 286 284 287 287 288 289 288 285 284 284 284 285 285 288 287 286 286 287 290 287 286 286 285 285 286 288 287 287 287 287 287 286 285 284
291 291 285 288 284 284 288 289 289 290 290 290 290 289 288 288 285 286 285 284 285 287 288 286 285 286 283 285 286 286 286 286 286 287 287 287 286 285
290 289 289 285 284 284 283 290 288 287 288 290 291 291 290 289 287 285 285 284 284 284 287 287 286 286 284 283 285 286 286 286 286 286 285 285 286 286
290 290 288 284 285 284 285 281 282 283 291 291 290 288 287 286 286 285 285 285 286 284 287 287 286 285 284 283 282 285 285 287 286 285 285 284 283 283
288 286 286 285 284 282 280 280 280 289 290 289 289 288 287 287 287 286 286 287 287 285 286 286 286 285 285 283 282 283 283 283 284 283 283 283 283 284
285 286 285 284 284 285 284 285 288 288 287 288 289 289 289 288 287 288 286 286 285 284 284 285 285 285 283 283 282 280 281 280 282 282 281 281 281 282
285 284 285 285 285 286 286 285 287 286 286 286 286 287 286 286 285 287 287 286 284 282 281 282 282 282 281 282 280 280 280 279 280 280 280 278 279 279
285 284 284 285 285 286 285 285 285 282 285 285 285 285 285 285 285 285 286 286 284 283 283 283 282 282 281 280 279 279 280 279 279 278 278 278 278 278
286 285 285 285 286 287 286 286 285 285 283 284 285 284 284 284 284 284 284 284 282 282 282 283 283 282 280 276 278 277 279 279 279 278 277 277 276 277
288 286 286 286 287 287 287 286 286 284 284 284 284 284 284 284 284 284 284 282 283 282 281 281 280 280 280 279 277 276 275 278 278 278 277 278 279 274
287 287 287 287 288 288 287 287 285 285 284 283 283 283 283 283 283 283 282 279 280 282 280 278 277 273 280 280 277 276 277 273 273 275 275 276 276 277
289 288 287 288 289 288 287 285 284 284 283 283 283 283 283 283 282 281 281 280 281 281 279 279 280 281 280 279 276 274 278 277 275 272 271 271 274 274
289 288 288 288 288 288 287 285 285 285 284 283 283 283 282 281 282 281 281 281 280 279 279 279 279 279 277 276 275 276 273 275 276 276 277 272 270 270
Wind_Speed
5 4 3 2 2 1 3 3 5 6 7 6 6 8 9 10 12 15 16 18 23 22 17 18 21 22 23 24 24 26 26 26 26 26 24 30 27 23
4 5 3 2 2 2 2 3 3 4 5 5 8 10 10 11 12 15 16 20 15 15 17 20 24 25 25 24 24 25 26 26 26 26 25 29 30 24
5 5 5 3 2 2 1 2 3 3 6 7 8 9 11 12 13 13 14 15 13 14 18 24 23 24 25 26 24 25 25 25 24 24 24 28 27 25
6 6 5 2 3 3 2 3 3 3 5 10 11 8 11 13 14 16 13 13 14 17 21 20 24 27 27 26 26 24 23 23 22 22 24 26 21 17
6 5 5 3 3 2 3 4 4 4 5 6 9 8 9 10 14 13 13 14 11 17 15 16 23 24 26 27 26 24 22 21 20 20 21 19 15 18
6 6 4 3 2 3 3 3 3 4 5 6 7 7 8 9 9 11 11 10 9 10 13 14 20 24 26 29 27 22 18 20 20 12 13 16 17 13
7 6 5 6 5 5 4 4 5 5 5 6 6 7 7 10 10 8 9 11 7 8 11 11 12 12 15 22 23 17 14 12 10 18 24 26 28 26
7 5 5 3 3 1 2 5 6 6 6 6 6 8 8 9 10 9 8 8 8 8 9 9 11 11 12 16 34 21 23 28 28 26 27 30 33 31
6 5 4 2 1 2 3 5 6 4 3 7 7 7 9 10 10 10 8 8 6 5 8 7 8 10 10 14 34 32 24 31 33 33 32 30 30 30
6 5 5 4 1 3 3 3 4 3 5 4 6 7 7 9 10 9 10 8 5 3 7 5 6 8 9 10 26 28 31 31 31 30 31 29 30 31
6 6 5 4 4 2 3 3 4 1 5 6 4 6 8 8 11 8 7 7 4 1 4 3 3 4 8 9 10 21 22 26 27 26 27 28 28 27
8 7 5 4 7 5 5 3 4 1 2 3 2 1 3 5 7 8 8 8 7 2 6 5 4 5 2 7 8 8 9 23 24 23 23 20 20 11
6 6 6 8 9 7 4 3 2 6 1 2 2 3 4 6 7 8 7 6 7 4 7 5 3 3 3 3 6 8 6 8 10 14 23 23 21 13
5 6 6 11 10 6 5 2 3 6 2 2 3 4 4 5 6 6 6 6 6 7 8 6 2 4 4 4 4 6 8 7 8 9 10 17 23 24
5 8 10 10 8 5 1 1 2 3 2 1 1 3 3 4 4 2 1 2 8 10 9 9 5 5 5 5 5 6 4 9 9 9 9 9 9 8
7 7 6 5 1 2 4 2 1 2 2 2 2 2 2 3 4 4 2 1 5 7 11 11 10 8 8 8 7 7 8 5 7 8 7 7 6 6
8 6 6 6 6 5 4 2 2 2 2 0 2 2 3 3 3 3 3 3 4 5 7 7 12 13 11 8 8 7 6 6 6 5 5 5 6 5
6 6 6 6 6 6 5 5 3 3 2 2 1 1 2 2 2 2 2 2 3 4 5 4 4 5 6 10 17 5 5 5 4 5 5 3 4 3
7 6 6 6 6 6 6 5 4 3 3 3 1 0 0 1 1 0 1 2 2 3 3 2 1 2 2 4 4 18 4 4 3 4 4 4 3 3
8 7 6 6 7 8 7 6 5 5 4 3 3 2 1 2 2 2 1 1 2 3 3 4 4 5 4 3 3 5 14 4 4 4 4 3 2 4
8 7 6 6 7 7 6 6 5 6 5 4 4 3 3 3 2 1 2 2 0 1 3 4 4 3 3 4 5 4 4 6 5 5 5 4 3 2
8 8 7 6 7 7 6 5 6 6 6 5 5 4 4 3 3 3 3 3 1 1 3 3 1 1 1 2 4 3 1 2 3 5 4 4 5 4
8 7 6 6 7 7 8 8 7 6 7 6 5 5 4 4 4 4 3 2 3 3 3 3 3 2 3 3 3 2 2 4 4 5 3 7 3 8
Wind_Direction
103 103 96 95 69 29 309 310 308 303 311 305 317 341 326 326 330 322 316 321 325 303 297 300 296 295 295 288 280 279 277 275 275 276 276 249 223 231
113 106 94 73 81 34 353 325 311 296 276 325 314 317 319 316 321 317 315 309 300 311 315 316 313 308 302 294 285 277 274 274 273 272 270 263 226 221
99 120 113 83 63 43 11 2 330 329 284 304 301 317 317 313 319 322 311 311 310 331 347 332 326 324 316 304 292 279 271 270 272 272 268 268 229 224
124 123 99 85 78 37 14 326 300 312 302 307 321 324 323 330 327 324 323 320 328 324 333 328 327 324 315 311 298 277 267 266 262 263 268 260 219 216
114 102 94 85 87 20 345 349 352 339 335 314 305 316 328 327 330 322 328 325 326 327 328 337 333 330 326 322 314 287 268 263 255 255 262 217 208 201
107 105 104 95 51 32 16 355 337 326 324 308 305 317 330 332 322 336 331 329 322 341 341 1 347 348 348 338 318 293 258 259 260 233 117 102 91 121
128 124 105 63 63 26 337 346 340 335 318 310 316 319 332 336 343 333 327 334 344 12 344 3 354 355 356 348 333 299 254 258 178 136 115 104 91 89
132 121 119 137 119 22 324 327 327 313 307 313 324 329 326 330 334 329 326 340 352 23 334 9 0 6 2 7 14 26 81 87 83 84 86 95 94 88
129 135 150 133 229 329 323 295 267 273 294 300 309 325 315 333 321 320 322 326 330 343 331 9 358 14 8 16 27 32 48 72 75 75 73 74 78 81
156 172 168 159 141 310 263 241 241 274 292 293 310 311 322 323 320 308 287 284 260 343 330 4 6 15 8 19 31 42 42 56 64 70 77 78 79 77
177 177 186 177 138 222 241 246 263 235 194 233 266 303 324 326 342 331 342 318 326 335 2 335 1 359 14 19 20 44 56 62 67 68 74 79 81 81
174 170 202 227 156 196 227 237 252 334 353 346 18 343 327 6 15 7 345 335 336 302 27 325 345 338 48 17 19 35 51 61 64 64 65 70 79 86
171 178 172 180 185 196 261 274 353 314 166 308 346 19 15 14 14 12 1 1 346 24 4 320 337 25 50 57 31 28 46 58 66 67 65 64 60 72
170 169 160 184 184 171 235 21 328 274 305 344 3 23 7 8 15 11 18 35 34 21 360 341 354 10 83 70 60 53 43 54 66 73 74 71 69 61
166 164 160 163 146 128 94 136 254 263 278 284 350 32 7 348 329 158 338 43 62 36 19 30 55 60 69 74 71 51 53 53 57 62 59 57 67 71
147 151 149 143 172 134 207 179 106 342 336 332 326 346 304 315 337 340 325 334 45 51 44 32 50 71 76 66 67 59 35 59 60 62 66 66 67 73
165 157 164 179 183 199 197 189 172 174 201 78 293 303 317 326 348 336 339 23 60 65 64 61 68 65 50 61 73 69 73 68 52 59 87 80 57 55
176 187 185 186 193 195 203 196 198 173 151 147 257 294 320 323 343 353 4 44 78 73 90 109 120 118 107 74 26 76 68 70 60 57 42 47 83 74
206 201 194 191 188 203 203 204 197 175 142 148 203 215 293 139 232 86 30 68 69 76 64 26 357 322 66 81 88 23 49 46 40 48 26 24 352 23
215 201 201 194 189 202 197 204 192 166 180 171 184 183 192 222 196 194 114 81 96 96 74 48 36 16 24 44 102 81 19 38 19 11 14 329 291 206
207 210 201 192 202 202 191 195 181 185 178 181 180 188 169 217 196 204 94 55 290 90 77 57 55 315 91 136 131 131 98 59 25 352 336 310 320 298
198 202 193 196 204 193 176 181 185 182 182 194 183 182 180 195 189 197 179 184 160 78 83 98 133 138 34 22 74 107 107 20 171 199 225 276 331 310
197 195 183 191 194 192 187 188 194 181 189 195 185 185 186 186 182 196 180 181 169 156 156 132 113 73 48 53 358 1 357 326 349 328 320 159 247 287